User: anonymous   Login
Location: Cul de Sac
(18.0387°N, 63.0654°W)
Time: 12:24:49
(UTC+00:00)
Language:

LAPAN A2 - Orbit

View from above orbital plane
View from above orbital plane
View from above satellite
View from above satellite

Ground track
Ground track

The orbit data is extracted from the following two-line orbital elements,

1 40931U 15052B   21262.42379975  .00000646  00000-0  83100-6 0  9993
2 40931   6.0032 302.2385 0012819 296.9609  62.9407 14.76688751323217
Epoch (UTC): 19 September 2021 10:10:16
Eccentricity: 0.0012819
inclination: 6.0032°
perigee height: 631 km
apogee height: 649 km
right ascension of ascending node: 302.2385°
argument of perigee: 296.9609°
revolutions per day: 14.76688751
mean anomaly at epoch: 62.9407°
orbit number at epoch: 32321

The dashed part of the orbit path shows where the satellite is in the earth's shadow,  

DLR